Location: Wavehorne
(51.0500°N, 0.8333°E)
Time: 01:13:45
(UTC+00:00)

ADEOS II - Pass Details

Date: 20 June 2021
Orbit: 799 x 800 km, 98.6° (Epoch: 04 August)

Event Time Altitude Azimuth Distance (km) Brightness Sun altitude
Rises 01:24:19 0° 21° (NNE) 3,324 7.4 -13.1°
Reaches altitude 10° 01:26:55 10° 32° (NNE) 2,388 6.0 -13.0°
Maximum altitude 01:31:37 32° 95° (E) 1,355 3.5 -12.7°
Drops below altitude 10° 01:36:17 10° 157° (SSE) 2,372 4.1 -12.4°
Enters shadow 01:36:51 - 160° (SSE) 2,572 4.3 -12.4°
